When you browse on this site, cookies collect data to enhance your experience and personalize the content and advertising you see.
Visit our Privacy Policy to learn more. By continuing to use the site, you agree to this use of cookies and data.
  • In United Kingdom
  • List of Countries
  • For 7 days
  • Water Temperature
  • Satellite Maps
  • Weather Map
  • Weather Widgets
  • user-avatar
    Login

    Hourly Weather Yelsk

    Today, 21 May, Tuesday

    Time Temperature Precipitation Wind Pressure Humidity
    00:00 +19°C° 0 mm 4 mps 745 mmHg 75%
    01:00 +19°C° 0 mm 4 mps 744 mmHg 75%
    02:00 +18°C° 0 mm 4 mps 744 mmHg 74%
    03:00 +18°C° 0 mm 4 mps 744 mmHg 74%
    04:00 +18°C° 0 mm 4 mps 744 mmHg 74%
    05:00 +16°C° 0 mm 5 mps 744 mmHg 74%
    06:00 +17°C° 0 mm 5 mps 744 mmHg 72%
    07:00 +19°C° 0 mm 6 mps 744 mmHg 70%
    08:00 +20°C° 0 mm 6 mps 744 mmHg 67%
    09:00 +19°C° 0.8 mm 6 mps 743 mmHg 74%
    10:00 +17°C° 0.8 mm 6 mps 743 mmHg 82%
    11:00 +16°C° 0.8 mm 6 mps 743 mmHg 89%
    12:00 +17°C° 0.3 mm 6 mps 743 mmHg 86%
    13:00 +19°C° 0.3 mm 6 mps 743 mmHg 83%
    14:00 +20°C° 0.3 mm 6 mps 743 mmHg 80%
    15:00 +20°C° 0.6 mm 6 mps 742 mmHg 80%
    16:00 +20°C° 0.6 mm 5 mps 742 mmHg 80%
    17:00 +20°C° 0.6 mm 5 mps 742 mmHg 81%
    18:00 +19°C° 0.1 mm 4 mps 742 mmHg 85%
    19:00 +18°C° 0.1 mm 3 mps 742 mmHg 88%
    20:00 +17°C° 0.1 mm 3 mps 741 mmHg 92%
    21:00 +16°C° 0 mm 3 mps 742 mmHg 93%
    22:00 +16°C° 0 mm 2 mps 742 mmHg 93%
    23:00 +15°C° 0 mm 2 mps 742 mmHg 94%

    Tomorrow, 22 May, Wednesday

    Time Temperature Precipitation Wind Pressure Humidity
    00:00 +14°C° 0 mm 2 mps 742 mmHg 94%
    01:00 +14°C° 0 mm 2 mps 742 mmHg 95%
    02:00 +13°C° 0 mm 2 mps 742 mmHg 95%
    03:00 +13°C° 0 mm 1 mps 742 mmHg 95%
    04:00 +13°C° 0 mm 1 mps 742 mmHg 95%
    05:00 +13°C° 0 mm 1 mps 742 mmHg 96%
    06:00 +15°C° 0 mm 1 mps 742 mmHg 88%
    07:00 +18°C° 0 mm 1 mps 742 mmHg 81%
    08:00 +20°C° 0 mm 1 mps 742 mmHg 74%
    09:00 +21°C° 0 mm 1 mps 742 mmHg 66%
    10:00 +23°C° 0 mm 1 mps 742 mmHg 58%
    11:00 +24°C° 0 mm 2 mps 742 mmHg 50%
    12:00 +24°C° 0 mm 2 mps 742 mmHg 48%
    13:00 +25°C° 0 mm 2 mps 741 mmHg 46%
    14:00 +25°C° 0 mm 2 mps 741 mmHg 44%
    15:00 +25°C° 0 mm 2 mps 741 mmHg 46%
    16:00 +24°C° 0 mm 2 mps 741 mmHg 49%
    17:00 +24°C° 0 mm 2 mps 741 mmHg 51%
    18:00 +21°C° 0.1 mm 2 mps 741 mmHg 62%
    19:00 +19°C° 0.1 mm 2 mps 741 mmHg 73%
    20:00 +17°C° 0.1 mm 2 mps 741 mmHg 84%
    21:00 +16°C° 0 mm 1 mps 741 mmHg 86%
    22:00 +15°C° 0 mm 1 mps 741 mmHg 88%
    23:00 +15°C° 0 mm 1 mps 741 mmHg 91%

    Day after tomorrow, 23 May, Thursday

    Time Temperature Precipitation Wind Pressure Humidity
    00:00 +14°C° 0 mm 1 mps 741 mmHg 92%
    01:00 +14°C° 0 mm 1 mps 741 mmHg 93%
    02:00 +14°C° 0 mm 1 mps 741 mmHg 94%
    03:00 +14°C° 0 mm 1 mps 741 mmHg 94%
    04:00 +14°C° 0 mm 1 mps 741 mmHg 94%
    05:00 +14°C° 0 mm 1 mps 741 mmHg 93%
    06:00 +16°C° 0 mm 1 mps 741 mmHg 87%
    07:00 +16°C° 0 mm 0 mps 741 mmHg 81%
    08:00 +18°C° 0 mm 0 mps 741 mmHg 74%
    09:00 +21°C° 0 mm 1 mps 741 mmHg 69%
    10:00 +22°C° 0 mm 1 mps 741 mmHg 64%
    11:00 +23°C° 0 mm 1 mps 741 mmHg 58%
    12:00 +24°C° 0 mm 1 mps 741 mmHg 54%
    13:00 +23°C° 0 mm 0 mps 741 mmHg 50%
    14:00 +24°C° 0 mm 0 mps 741 mmHg 46%
    15:00 +24°C° 0 mm 0 mps 741 mmHg 46%
    16:00 +23°C° 0 mm 0 mps 741 mmHg 46%
    17:00 +23°C° 0 mm 0 mps 741 mmHg 46%
    18:00 +21°C° 0 mm 0 mps 741 mmHg 52%
    19:00 +19°C° 0 mm 0 mps 741 mmHg 58%
    20:00 +17°C° 0 mm 0 mps 741 mmHg 64%
    21:00 +17°C° 0 mm 0 mps 741 mmHg 66%
    22:00 +16°C° 0 mm 0 mps 741 mmHg 68%
    23:00 +15°C° 0 mm 0 mps 742 mmHg 70%

    24 May, Friday

    Time Temperature Precipitation Wind Pressure Humidity
    00:00 +15°C° 0 mm 0 mps 742 mmHg 72%
    01:00 +15°C° 0 mm 0 mps 742 mmHg 74%
    02:00 +14°C° 0 mm 0 mps 742 mmHg 77%
    03:00 +14°C° 0 mm 0 mps 742 mmHg 78%
    04:00 +14°C° 0 mm 0 mps 742 mmHg 79%
    05:00 +14°C° 0 mm 0 mps 742 mmHg 81%
    06:00 +16°C° 0 mm 0 mps 742 mmHg 74%
    07:00 +19°C° 0 mm 0 mps 742 mmHg 67%
    08:00 +23°C° 0 mm 1 mps 742 mmHg 61%
    09:00 +24°C° 0 mm 1 mps 742 mmHg 56%
    10:00 +25°C° 0 mm 1 mps 742 mmHg 52%
    11:00 +26°C° 0 mm 2 mps 741 mmHg 47%
    12:00 +26°C° 0 mm 2 mps 741 mmHg 48%
    13:00 +26°C° 0 mm 2 mps 741 mmHg 49%
    14:00 +26°C° 0 mm 1 mps 741 mmHg 49%
    15:00 +26°C° 0 mm 1 mps 740 mmHg 52%
    16:00 +25°C° 0 mm 1 mps 740 mmHg 55%
    17:00 +25°C° 0 mm 1 mps 740 mmHg 58%
    18:00 +23°C° 0.4 mm 1 mps 740 mmHg 65%
    19:00 +22°C° 0.4 mm 1 mps 740 mmHg 72%
    20:00 +20°C° 0.4 mm 1 mps 740 mmHg 80%
    21:00 +19°C° 0.2 mm 1 mps 740 mmHg 82%
    22:00 +18°C° 0.2 mm 1 mps 740 mmHg 85%
    23:00 +18°C° 0.2 mm 1 mps 739 mmHg 88%

    25 May, Saturday

    Time Temperature Precipitation Wind Pressure Humidity
    00:00 +16°C° 0.2 mm 1 mps 739 mmHg 89%
    01:00 +16°C° 0.2 mm 1 mps 739 mmHg 91%
    02:00 +16°C° 0.2 mm 1 mps 739 mmHg 92%
    03:00 +16°C° 0.1 mm 1 mps 739 mmHg 93%
    04:00 +15°C° 0.1 mm 0 mps 739 mmHg 93%
    05:00 +15°C° 0.1 mm 0 mps 739 mmHg 94%
    06:00 +16°C° 0.4 mm 0 mps 739 mmHg 89%
    07:00 +19°C° 0.4 mm 1 mps 739 mmHg 85%
    08:00 +21°C° 0.4 mm 1 mps 739 mmHg 80%
    09:00 +21°C° 1.6 mm 2 mps 739 mmHg 78%
    10:00 +21°C° 1.6 mm 3 mps 738 mmHg 76%
    11:00 +22°C° 1.6 mm 4 mps 738 mmHg 73%
    12:00 +21°C° 0.7 mm 4 mps 738 mmHg 74%
    13:00 +21°C° 0.7 mm 4 mps 738 mmHg 75%
    14:00 +21°C° 0.7 mm 4 mps 738 mmHg 76%
    15:00 +20°C° 0.6 mm 4 mps 738 mmHg 79%
    16:00 +19°C° 0.6 mm 4 mps 738 mmHg 82%
    17:00 +19°C° 0.6 mm 4 mps 738 mmHg 85%
    18:00 +18°C° 0.3 mm 3 mps 738 mmHg 87%
    19:00 +17°C° 0.3 mm 3 mps 738 mmHg 88%
    20:00 +16°C° 0.3 mm 3 mps 738 mmHg 90%
    21:00 +16°C° 0 mm 3 mps 738 mmHg 90%
    22:00 +14°C° 0 mm 3 mps 738 mmHg 90%
    23:00 +13°C° 0 mm 4 mps 739 mmHg 91%

    26 May, Sunday

    Time Temperature Precipitation Wind Pressure Humidity
    00:00 +13°C° 0 mm 4 mps 739 mmHg 92%
    01:00 +12°C° 0 mm 4 mps 739 mmHg 93%
    02:00 +12°C° 0 mm 4 mps 739 mmHg 94%
    03:00 +12°C° 0 mm 4 mps 739 mmHg 93%
    04:00 +11°C° 0 mm 4 mps 740 mmHg 93%
    05:00 +11°C° 0 mm 4 mps 740 mmHg 93%
    06:00 +12°C° 0 mm 4 mps 740 mmHg 86%
    07:00 +12°C° 0 mm 4 mps 740 mmHg 80%
    08:00 +13°C° 0 mm 4 mps 740 mmHg 73%
    09:00 +14°C° 0 mm 4 mps 740 mmHg 67%
    10:00 +17°C° 0 mm 4 mps 740 mmHg 60%
    11:00 +18°C° 0 mm 4 mps 740 mmHg 54%
    12:00 +17°C° 0.1 mm 5 mps 740 mmHg 55%
    13:00 +17°C° 0.1 mm 5 mps 740 mmHg 57%
    14:00 +17°C° 0.1 mm 5 mps 740 mmHg 58%
    15:00 +17°C° 0.1 mm 5 mps 739 mmHg 58%
    16:00 +16°C° 0.1 mm 5 mps 739 mmHg 58%
    17:00 +16°C° 0.1 mm 5 mps 739 mmHg 57%
    18:00 +15°C° 0 mm 4 mps 739 mmHg 63%
    19:00 +13°C° 0 mm 3 mps 739 mmHg 69%
    20:00 +13°C° 0 mm 2 mps 739 mmHg 75%
    21:00 +11°C° 0 mm 3 mps 739 mmHg 77%
    22:00 +11°C° 0 mm 3 mps 739 mmHg 79%
    23:00 +11°C° 0 mm 3 mps 739 mmHg 80%
    Show more